Retour au catalogue

STARLINK-32869

ActifCommunicationsVLEO
NORAD 62859·PAYLOAD·🇺🇸 United States

Lancé Feb 1, 2025 depuis Vandenberg Space Force Base

Loading…

Prochains Passages (prochaines 24 heures)

TLE

FraisSource: CelesTrak SupGP

Époque: Sep 14, 2026, 22:42 UTC

1 62859C 25022F   26257.94631944  .00015059  00000+0  44507-3 0  2572
2 62859  53.1602 327.6474 0001164  85.9226  25.9894 15.34373457    16

Suivez STARLINK-32869 en temps réel avec AllMySat

Download on the App Store